COSMOS 1261 DEB, 12892

Orbit data source: Space-Track

COSMOS 1261 DEB, 12892 is space debris originally from a launch on Tue, 31 Mar 1981 UTC launched from the Plesetsk Missile And Space Complex (PKMTR). Debris objects in space refer to the collection of defunct objects orbiting the Earth. Examples of debris include non-operational satellites, rocket bodies, and fragments generated from explosions, collisions, or faulty payload assembly.

Not visible in the next 10 days
Identifier
12892, 1981-031E
Orbit
Molniya
Country
Flag of CISCIS
Related business
Manufacturer
Unknown
Mission
Spacecraft
Bus & Motor
Unknown
Mass
Unknown
Launch date (UTC)
1981-03-31 (45 years ago)
Launch vehicle
Unknown
Launch site
Plesetsk Missile And Space Complex (PKMTR)
Object type
Payload
Rocket body
Debris
Shape & HBR
Unknown shape, 1.1 m
Radar Cross Section
Large (>1 m²)

Expand to show TLE details & history
Last TLE update: 15 hours ago

TLE from 15 hours ago
0 COSMOS 1261 DEB
1 12892U 81031E   26035.34883833  .00007169  00000-0  40558-2 0  9998
2 12892  62.1489 107.4380 7488220  44.9600 355.4217  2.00790675256748
Epoch: 2026-02-04T08:22Z
TLE epoch observation values (Epoch: 2026-02-04T08:22:19.631Z)
Latitude
0.00035°
Longitude
-152.57086°
Altitude
1,215.214 km
Speed
9.486 km/s
True Right ascension
07h 10m 06s
True Declination
0° 00' 01"
Sunlit
Object was in full shadow at epoch
Visualization orbit readout
Latitude
Unknown
Longitude
Unknown
Altitude
Unknown
Speed
Unknown
Apparent Right ascension
Unknown
Apparent Declination
Unknown
Sunlit
N/A
Visualization observer readout
Local Sidereal Time
01:36:09
Azimuth
Unknown
Elevation
Unknown
Doppler factor
Unknown
Orbital elements
Apogee altitude
40,034.466 km
Perigee altitude
287.964 km
Semi-major axis
26,539.352 km
Eccentricity
0.74882
Inclination
62.1489°
RAAN
107.438°
Arg. of periapsis
44.96°
True anomaly
315.95651°
Mean anomaly
355.4217°
Eccentric anomaly
342.57041°
Mean motion
0.502 °/min
Orbital period
717.12 mins
BSTAR
0.0040558
Loading maneuver chart data...
Computing Atmospheric mass density...
Loading historical data...
Loading historical data...
Loading historical data...
Loading historical data...
Loading historical data...
Loading historical data...
Loading historical data...

Documentation

Showing up to 5 results
|